JE7ZDC Weather Reports


Display with metric or nautical units.
time (UTC)temp
F
wind
direction
speed
MPH
gust
MPH
rain 1hr
in
rain 24hr
in
rain mn
in
humidity
%
barometer
mb
20190116154630 30 167 0.0 1.0 0.00 0.00 0.00 77 1014.6
20190116153140 30 136 0.0 1.0 0.00 0.00 0.00 77 1014.8
20190116151537 30 186 0.0 1.0 0.00 0.00 0.00 76 1015.2
20190116150045 30 18 0.0 2.0 0.00 0.00 0.00 75 1015.3
20190116144545 30 94 0.0 1.0 0.00 0.00 0.00 75 1015.3
20190116143035 30 190 0.0 1.0 0.00 0.00 0.00 76 1015.6
20190116141549 30 193 0.0 1.0 0.00 0.00 0.00 77 1015.4
20190116140027 30 117 0.0 1.0 0.00 0.00 0.00 76 1015.5
20190116134601 30 117 0.0 1.0 0.00 0.00 0.00 75 1015.4
20190116133032 30 350 0.0 2.0 0.00 0.00 0.00 74 1015.3
20190116131543 30 201 0.0 4.0 0.00 0.00 0.00 74 1015.4
20190116130102 31 96 0.0 2.0 0.00 0.00 0.00 73 1015.5
20190116124523 30 22 0.0 2.0 0.00 0.00 0.00 73 1015.4
20190116123030 31 24 0.0 2.0 0.00 0.00 0.00 72 1015.6
20190116121524 31 54 0.0 1.0 0.00 0.00 0.00 71 1015.5
20190116120057 30 153 0.0 0.0 0.00 0.00 0.00 74 1015.5
20190116114515 30 162 0.0 0.0 0.00 0.00 0.00 75 1015.6
20190116113119 30 93 0.0 7.0 0.00 0.00 0.00 74 1015.3
20190116111526 30 311 0.0 2.0 0.00 0.00 0.00 75 1015.6
20190116110018 30 55 0.0 2.0 0.00 0.00 0.00 74 1015.5
20190116104536 30 252 0.0 2.0 0.00 0.00 0.00 74 1015.7
20190116103033 30 8 0.0 2.0 0.00 0.00 0.00 74 1015.8
20190116101511 31 91 0.0 1.0 0.00 0.00 0.00 73 1015.9
20190116100005 31 64 0.0 5.0 0.00 0.00 0.00 72 1015.8
20190116094521 31 333 0.0 7.0 0.00 0.00 0.00 72 1015.7
20190116093138 31 331 2.0 9.0 0.00 0.00 0.00 72 1015.4
20190116091647 31 313 2.0 6.0 0.00 0.00 0.00 71 1015.5
20190116090253 31 324 3.0 7.0 0.00 0.00 0.00 71 1015.6
20190116084622 31 263 3.0 6.0 0.00 0.00 0.00 72 1015.3
20190116083155 31 16 1.0 7.0 0.00 0.00 0.00 73 1015.0
20190116081701 31 282 0.0 10.0 0.00 0.00 0.00 73 1015.1
20190116080136 31 325 1.0 10.0 0.00 0.00 0.00 72 1014.9
20190116074620 32 302 4.0 13.0 0.00 0.00 0.00 71 1014.7
20190116073108 32 330 5.0 14.0 0.00 0.00 0.00 71 1014.4
20190116071621 32 287 4.0 15.0 0.00 0.00 0.00 70 1014.4
20190116070127 32 360 4.0 10.0 0.00 0.00 0.00 70 1014.5
20190116064617 33 316 5.0 14.0 0.00 0.00 0.00 70 1014.4
20190116063138 33 33 5.0 16.0 0.00 0.00 0.00 66 1014.3
20190116061624 34 335 3.0 11.0 0.00 0.00 0.00 63 1014.2
20190116060110 34 300 6.0 17.0 0.00 0.00 0.00 64 1014.2
20190116054617 34 339 8.0 18.0 0.00 0.00 0.00 63 1013.9
20190116053132 34 16 5.0 17.0 0.00 0.00 0.00 63 1013.7
20190116051548 33 308 10.0 22.0 0.00 0.00 0.00 64 1013.4
20190116050101 34 45 8.0 23.0 0.00 0.00 0.00 65 1013.2
20190116044550 34 356 5.0 18.0 0.00 0.00 0.00 65 1013.0
20190116043115 34 318 10.0 22.0 0.00 0.00 0.00 66 1012.9
20190116041554 34 295 5.0 22.0 0.00 0.00 0.00 66 1012.8
20190116040056 34 317 8.0 23.0 0.00 0.00 0.00 67 1012.7
20190116034601 34 282 9.0 26.0 0.00 0.00 0.00 66 1012.6
20190116033025 35 292 10.0 21.0 0.00 0.00 0.00 65 1012.7
20190116031536 35 266 9.0 27.0 0.00 0.00 0.00 66 1012.8
20190116030109 35 294 12.0 26.0 0.00 0.00 0.00 65 1012.8
20190116024521 35 294 11.0 28.0 0.00 0.00 0.00 66 1012.7
20190116023042 35 61 8.0 28.0 0.00 0.00 0.00 67 1013.0
20190116021529 35 339 12.0 24.0 0.00 0.00 0.00 67 1013.2
20190116020021 36 38 7.0 23.0 0.00 0.00 0.00 65 1013.4
20190116014520 35 315 12.0 26.0 0.00 0.00 0.00 65 1013.3
20190116013014 35 310 12.0 28.0 0.00 0.00 0.00 65 1013.5
20190116011531 35 337 11.0 29.0 0.00 0.00 0.00 65 1013.6
20190116010025 36 57 9.0 28.0 0.00 0.00 0.00 64 1013.5
20190116004503 36 326 8.0 25.0 0.00 0.00 0.00 65 1013.5
20190116003215 35 357 9.0 32.0 0.00 0.00 0.00 67 1013.3
20190116001712 36 326 11.0 23.0 0.00 0.00 0.00 66 1013.4
20190116000204 35 309 7.0 20.0 0.00 0.00 0.00 68 1013.4
20190115234741 36 354 10.0 21.0 0.00 0.00 0.00 66 1013.2
20190115233151 36 330 10.0 21.0 0.00 0.00 0.00 68 1012.8
20190115231637 36 334 9.0 26.0 0.00 0.00 0.00 69 1012.8
20190115230142 35 354 8.0 18.0 0.00 0.00 0.00 71 1012.9
20190115224600 36 13 10.0 22.0 0.00 0.00 0.00 70 1013.0
20190115223058 36 14 10.0 19.0 0.00 0.00 0.00 72 1012.7
20190115221616 36 330 11.0 23.0 0.00 0.00 0.00 73 1012.5
20190115220057 36 332 8.0 19.0 0.00 0.00 0.00 73 1012.7
20190115214623 36 259 6.0 23.0 0.00 0.00 0.00 73 1012.8
20190115213033 37 290 8.0 20.0 0.00 0.00 0.00 72 1012.2
20190115211537 37 308 5.0 18.0 0.00 0.00 0.00 72 1011.9
20190115210100 37 316 8.0 14.0 0.00 0.00 0.00 74 1011.9
20190115204626 37 35 5.0 20.0 0.00 0.00 0.00 74 1011.7
20190115203029 37 86 7.0 18.0 0.00 0.00 0.00 73 1011.5
20190115201602 38 280 12.0 27.0 0.00 0.00 0.00 73 1011.2
20190115200020 38 307 7.0 20.0 0.00 0.00 0.00 75 1010.9
20190115194520 37 286 10.0 21.0 0.00 0.00 0.00 75 1010.7
20190115193030 37 20 8.0 19.0 0.00 0.00 0.00 77 1010.4
20190115191534 38 11 7.0 18.0 0.00 0.00 0.00 76 1010.3
20190115190009 38 303 8.0 19.0 0.00 0.00 0.00 77 1010.3
20190115184752 38 285 6.0 14.0 0.00 0.00 0.00 80 1010.1
20190115183222 38 338 6.0 19.0 0.00 0.00 0.00 81 1010.3
20190115181642 38 341 9.0 15.0 0.00 0.00 0.00 82 1010.2
20190115180203 38 322 5.0 14.0 0.00 0.00 0.00 81 1010.0
20190115174625 39 316 4.0 15.0 0.00 0.00 0.00 79 1010.0
20190115173216 39 303 4.0 11.0 0.00 0.00 0.00 81 1010.3
20190115171615 40 271 0.0 6.0 0.00 0.00 0.00 81 1010.1
20190115170200 40 23 0.0 2.0 0.00 0.00 0.00 80 1009.3
20190115164623 39 259 0.0 5.0 0.00 0.00 0.00 83 1009.2
20190115163207 39 207 0.0 3.0 0.00 0.00 0.00 83 1009.3
20190115161601 38 148 1.0 4.0 0.00 0.00 0.00 82 1009.3
20190115160136 39 86 1.0 3.0 0.00 0.00 0.00 82 1009.3